sat.trackr.live / text

‹ back to catalog

CAS-2T & KS-1Q

NORAD 41847 · 2016-066G

PAYLOAD ACTIVE UNKNOWN

§ Identity

Operator
Country
PRC
Launch date
2016-11-09
Launch site
JSC
Launch vehicle
Mass (kg)
RCS (m²)
0.12

Purposes: comms

External: N2YO · Heavens-Above · Gunter

§ Orbital elements

Epoch: 2026-09-09T04:14:13.661664Z

Period
99.67 min
Inclination
98.3761°
Eccentricity
0.0340250
Mean motion
14.44832044 rev/d
Perigee alt
500.3 km
Apogee alt
984.9 km
Semi-major
7,120.7 km
B*
1.0157e-4
RAAN
326.9476°
Arg perigee
234.5612°
Mean anomaly
122.3375°
Rev number
51,692

§ Raw data

CAS-2T & KS-1Q1 41847U 16066G   26252.17654701  .00000654  00000+0  10157-3 0  99922 41847  98.3761 326.9476 0340250 234.5612 122.3375 14.44832044516924

JSON: /api/v1/satellites/41847 · /tle

For live sub-satellite position, see the globe view (requires WebGL).

§ Visibility from observer

Set your observer location to see the next 7 days of passes ≥ 10°. The values pass through the URL so the page stays shareable.

No JS? Fill the form by hand. The geolocation button needs JavaScript.

§ Radio — SatNOGS DB

ModeDescriptionDownlinkUplink
CW CW Telemetry 435.710 MHz
FMN FM Transponder (inactive) 435.615 MHz 145.925 MHz

2 transmitters · refreshed weekly from db.satnogs.org